[[{"header":{"parameterUnit":"m.s-1","parameterCategory":1,"la1":30.2991,"la2":30.254,"lo1":-89.0895,"lo2":-89.0444,"dy":0.0017,"dx":0.0017,"nx":28,"ny":28,"refTime":"2023-07-20T21:00:00:Z","depth":0,"parameterNumber":2,"parameterNumberName":"U-component_of_WINDS"},"data":[0,0,0,0,0,0,0,0,0,0,0,0,0,0,0,0,0,0,0,0,0,0,0,0,0,0,0,0,0,0,0,0,0,0,0,0,0,0,0,0,0,0,0,0,0,0,0,0,0,0,0,0,0,0,0,0,0,0,2.6879,2.6881,0,2.7022,2.7023,2.7025,2.705,2.7048,2.7047,2.7046,2.7195,2.72,2.7205,0,0,0,0,0,0,0,0,0,0,0,0,0,2.6632,2.6636,2.6879,2.6881,2.6883,2.7021,2.7023,2.7025,2.705,2.7048,2.7047,2.7045,2.7193,2.7199,2.7205,0,0,0,0,0,0,0,0,0,0,0,0,0,2.6753,2.6637,2.6879,2.6912,2.6916,2.7021,2.7023,2.7026,2.705,2.7048,2.7046,2.7045,2.7191,2.7199,2.7206,2.7289,0,0,2.7229,2.7233,0,0,0,0,0,0,0,0,2.6746,2.6762,2.6905,2.691,2.6915,2.7016,2.6991,2.7114,2.7051,2.6999,2.7046,2.7044,2.7137,2.7149,2.718,2.7296,2.7303,2.723,2.7235,2.7238,2.724,0,0,0,0,0,0,0,2.6738,2.6756,2.6936,2.6907,2.6913,2.692,2.6935,2.7014,2.7077,2.7004,2.7006,2.7022,2.7139,2.7172,2.7183,2.7305,2.723,2.7237,2.7241,2.7244,2.7497,2.7499,0,0,0,0,0,0,2.6723,2.6749,2.6931,2.694,2.6824,2.6926,2.6943,2.6985,2.7076,2.7088,2.7023,2.7023,2.716,2.7174,2.7189,2.7291,2.7238,2.7245,2.7249,2.7495,2.7497,2.75,0,0,0,0,0,0,2.6718,2.6739,2.6925,2.6845,2.6869,2.6932,2.6979,2.6989,2.7022,2.7091,2.7102,2.7045,2.7159,2.7178,2.7264,2.7297,2.7249,2.7255,2.7492,2.7496,2.7499,2.7497,0,0,0,0,0,0,2.671,2.6737,2.6768,2.6846,2.6874,2.6997,2.6981,2.6993,2.7035,2.7035,2.7114,2.7126,2.7159,2.7252,2.7271,2.7306,2.7261,2.749,2.7494,2.7498,2.7494,2.75,2.7504,0,0,0,0,0,2.6701,2.6763,2.677,2.6792,2.6914,2.6999,2.7015,2.7051,2.7037,2.707,2.7114,2.7123,2.7291,2.7261,2.7283,2.732,2.7488,2.7493,2.7497,2.7492,2.7499,2.7504,0,0,0,0,0,0,2.6688,2.6774,2.6782,2.687,2.6927,2.7003,2.7044,2.7057,2.712,2.7117,2.7161,2.7179,2.7262,2.73,2.7266,2.7406,2.7388,2.7398,2.7377,2.7384,2.7389,2.7377,2.7268,0,0,0,0,0,2.6696,2.6757,2.6828,2.6899,2.6927,2.6981,2.7019,2.7043,2.7103,2.7128,2.7178,2.7238,2.7304,2.7346,2.7411,2.7501,2.7518,2.7538,2.7543,2.7546,2.7553,2.7603,2.7612,2.7515,2.7515,2.7515,0,0,2.6711,2.6766,2.6801,2.6898,2.6945,2.7007,2.7001,2.7068,2.7115,2.7138,2.7221,2.7261,2.7331,2.7419,2.746,2.7453,2.7584,2.7553,2.7555,2.756,2.7609,2.7618,2.7626,2.7519,2.7518,2.7518,0,0,2.6771,2.6819,2.6883,2.693,2.7,2.7036,2.7051,2.7126,2.7152,2.7237,2.7256,2.7313,2.7426,2.7474,2.7514,2.7594,2.7604,2.7614,2.7639,2.7687,2.7695,2.7702,2.7729,2.7738,2.7621,2.7621,2.7621,0,2.6782,2.6876,2.6914,2.698,2.7022,2.7046,2.7111,2.7155,2.7244,2.7272,2.7264,2.7405,2.7454,2.7553,2.7572,2.7604,2.7623,2.7604,2.769,2.7698,2.7705,2.7731,2.7741,2.7622,2.7622,2.7622,2.7622,0,2.6885,2.6951,2.6994,2.7077,2.7125,2.719,2.7238,2.7282,2.7302,2.7338,2.7424,2.7484,2.756,2.7586,2.7607,2.7689,2.7682,2.7681,2.7664,2.7714,2.7739,2.775,2.7622,2.7622,2.7622,2.7622,0,0,2.6938,2.7043,2.7058,2.7096,2.7177,2.7228,2.7295,2.7369,2.7405,2.7467,2.7523,2.7619,2.7619,2.7663,2.769,2.7732,2.779,2.7727,2.7729,2.7735,2.7883,2.7881,2.7892,2.7799,2.7801,2.7803,2.7876,0,2.7007,2.7125,2.7162,2.7261,2.7322,2.7346,2.7405,2.7461,2.7497,2.7555,2.7597,2.7662,2.7658,2.7685,2.7729,2.7774,2.782,2.7769,2.7852,2.7854,2.7831,2.7905,2.7904,2.797,2.7887,2.7888,2.789,0,2.7101,2.7162,2.7267,2.734,2.7367,2.7418,2.7489,2.7544,2.7609,2.7633,2.7683,2.7706,2.7778,2.7758,2.7857,2.7822,2.7858,2.7886,2.7889,2.7897,2.7873,2.7913,2.7993,2.8002,2.7906,2.7905,2.7904,0,2.7127,2.7236,2.7313,2.7345,2.7433,2.7468,2.7506,2.7569,2.7612,2.7674,2.7702,2.7773,2.7811,2.7866,2.7908,2.789,2.8003,2.7987,2.8024,2.8023,2.8045,2.8043,2.813,2.8072,2.8072,2.8072,2.8071,0,2.7198,2.726,2.7326,2.7373,2.7444,2.7487,2.7557,2.7597,2.7653,2.7708,2.7735,2.7787,2.784,2.7899,2.7933,2.8009,2.8027,2.8048,2.8056,2.8045,2.8041,2.8067,2.8063,2.8074,2.8074,2.8073,2.8073,0,2.7237,2.7284,2.7369,2.7445,2.7466,2.7515,2.758,2.7627,2.7666,2.7736,2.7755,2.7815,2.7886,2.7934,2.8025,2.8048,2.813,2.8138,2.8108,2.8111,2.8145,2.814,2.8249,2.8266,2.8199,2.8199,2.82,0,2.7278,2.7327,2.7408,2.7447,2.7485,2.7547,2.759,2.7636,2.7679,2.7757,2.7795,2.7868,2.7928,2.804,2.8093,2.8163,2.8172,2.8205,2.8182,2.8169,2.817,2.8165,2.817,2.8208,2.8208,2.8209,2.8209,0,2.7345,2.7366,2.7426,2.7495,2.7546,2.7603,2.766,2.7691,2.7746,2.7794,2.7866,2.7913,2.8006,2.8078,2.8153,2.8193,2.821,2.8216,2.8228,2.8216,2.8195,2.8205,2.8115,2.8213,2.8213,2.8212,2.8212,2.8212,2.7385,2.7429,2.7493,2.756,2.7608,2.7661,2.7708,2.7753,2.7814,2.7892,2.7916,2.7991,2.8056,2.8158,2.82,2.826,2.8256,2.8274,2.8278,2.8281,2.828,2.8188,2.8274,2.8274,2.8274,2.8274,2.8274,0,2.7452,2.7494,2.7556,2.7634,2.7687,2.7699,2.7763,2.7806,2.7872,2.793,2.7989,2.8072,2.8142,2.8201,2.8273,2.831,2.832,2.8327,2.8324,2.8333,2.828,2.8261,2.8318,2.8318,2.8318,2.8318,2.8318,2.8318,2.7492,2.7567,2.7596,2.7696,2.7738,2.7811,2.7847,2.7896,2.7943,2.8034,2.8092,2.813,2.8189,2.8265,2.833,2.8346,2.8371,2.8376,2.8393,2.8342,2.8337,2.8332,2.8314,2.8382,2.8382,2.8441,2.8441,2.8442]},{"header":{"parameterUnit":"m.s-1","parameterCategory":1,"la1":30.2991,"la2":30.254,"lo1":-89.0895,"lo2":-89.0444,"dy":0.0017,"dx":0.0017,"nx":28,"ny":28,"refTime":"2023-07-20T21:00:00:Z","depth":0,"parameterNumber":3,"parameterNumberName":"V-component_of_WINDS"},"data":[0,0,0,0,0,0,0,0,0,0,0,0,0,0,0,0,0,0,0,0,0,0,0,0,0,0,0,0,0,0,0,0,0,0,0,0,0,0,0,0,0,0,0,0,0,0,0,0,0,0,0,0,0,0,0,0,0,0,5.1487,5.1488,0,5.1554,5.1554,5.1555,5.1535,5.1534,5.1533,5.1531,5.159,5.1593,5.1596,0,0,0,0,0,0,0,0,0,0,0,0,0,5.1334,5.1337,5.1487,5.1488,5.1489,5.1554,5.1554,5.1555,5.1535,5.1534,5.1532,5.1531,5.159,5.1593,5.1596,0,0,0,0,0,0,0,0,0,0,0,0,0,5.14,5.1338,5.1487,5.1487,5.1488,5.1553,5.1554,5.1556,5.1536,5.1534,5.1532,5.153,5.1588,5.1593,5.1597,5.1664,0,0,5.161,5.1612,0,0,0,0,0,0,0,0,5.1397,5.1406,5.1486,5.1487,5.1488,5.1534,5.1522,5.1592,5.1536,5.1517,5.1531,5.1529,5.1573,5.1578,5.1595,5.1667,5.1669,5.161,5.1613,5.1615,5.1616,0,0,0,0,0,0,0,5.1392,5.1403,5.1513,5.1487,5.1489,5.1481,5.1488,5.1535,5.1555,5.1519,5.1518,5.1526,5.1573,5.1591,5.1596,5.167,5.161,5.1614,5.1616,5.1618,5.1798,5.18,0,0,0,0,0,0,5.1388,5.1399,5.1511,5.1515,5.1437,5.1485,5.1493,5.1521,5.1555,5.1558,5.1528,5.1525,5.1585,5.1591,5.1598,5.1677,5.1615,5.1619,5.1621,5.1795,5.1798,5.1801,0,0,0,0,0,0,5.1385,5.1398,5.1508,5.1457,5.1471,5.149,5.1522,5.1524,5.1542,5.1562,5.1564,5.1543,5.1583,5.1592,5.1648,5.1679,5.162,5.1624,5.1793,5.1796,5.1799,5.1838,0,0,0,0,0,0,5.1381,5.1397,5.1425,5.1458,5.1473,5.156,5.1524,5.1526,5.155,5.1547,5.1577,5.158,5.1582,5.1642,5.1652,5.1684,5.1628,5.179,5.1794,5.1798,5.1833,5.1842,5.1849,0,0,0,0,0,5.1375,5.1432,5.1427,5.144,5.1509,5.1562,5.157,5.1575,5.1553,5.1579,5.1592,5.1579,5.1675,5.1647,5.1659,5.1693,5.1788,5.1793,5.1798,5.183,5.184,5.1849,0,0,0,0,0,0,5.1399,5.1436,5.1431,5.15,5.1529,5.1558,5.1592,5.1585,5.1618,5.1613,5.1615,5.1621,5.1678,5.1691,5.166,5.1758,5.1728,5.1735,5.1748,5.1758,5.1765,5.176,5.1631,0,0,0,0,0,5.1413,5.1456,5.1485,5.1543,5.1558,5.1573,5.1596,5.1597,5.1625,5.1636,5.1652,5.1677,5.1713,5.1736,5.177,5.1836,5.184,5.1864,5.1872,5.1878,5.1884,5.1918,5.1928,5.1817,5.1817,5.1817,0,0,5.1441,5.1466,5.1493,5.1548,5.157,5.1611,5.1583,5.1627,5.1657,5.1641,5.1695,5.1709,5.1736,5.1797,5.1824,5.1809,5.1916,5.1885,5.1889,5.1892,5.1924,5.1934,5.1944,5.182,5.182,5.1819,0,0,5.1513,5.1538,5.1589,5.1612,5.1646,5.1656,5.1668,5.1699,5.1708,5.1763,5.1752,5.1786,5.1847,5.1867,5.1886,5.1965,5.1953,5.1976,5.2015,5.2048,5.2056,5.2064,5.2091,5.21,5.1982,5.1982,5.1982,0,5.1542,5.1607,5.1614,5.1661,5.1684,5.1675,5.1725,5.1746,5.1788,5.1803,5.1787,5.1864,5.1882,5.1946,5.1965,5.1981,5.1993,5.1972,5.2055,5.2063,5.207,5.2095,5.2106,5.1984,5.1984,5.1984,5.1984,0,5.1641,5.1686,5.1722,5.1766,5.1794,5.1841,5.1853,5.188,5.1878,5.1889,5.1943,5.1965,5.2003,5.2018,5.2016,5.2082,5.2071,5.2055,5.2024,5.2083,5.2107,5.2117,5.1988,5.1987,5.1986,5.1986,0,0,5.1728,5.1778,5.179,5.181,5.1847,5.188,5.1926,5.1966,5.1988,5.2017,5.2054,5.2106,5.2092,5.2112,5.2113,5.2142,5.2201,5.2122,5.2122,5.2134,5.2272,5.2283,5.2294,5.2194,5.2196,5.2197,5.2269,0,5.1802,5.1887,5.1894,5.1969,5.2009,5.2,5.204,5.2065,5.2076,5.2109,5.212,5.2157,5.2136,5.2148,5.2176,5.2188,5.2228,5.2183,5.2225,5.2226,5.2217,5.2307,5.2319,5.2386,5.2279,5.228,5.2281,0,5.1899,5.1935,5.2014,5.2046,5.2062,5.2098,5.2135,5.2168,5.2195,5.2201,5.2224,5.222,5.2264,5.2233,5.2292,5.2261,5.2279,5.2287,5.2289,5.2292,5.2256,5.231,5.2407,5.2417,5.2296,5.2295,5.2294,0,5.1953,5.202,5.2076,5.2093,5.2132,5.2157,5.2173,5.22,5.2223,5.2253,5.2268,5.2302,5.2321,5.2346,5.235,5.2328,5.2409,5.2378,5.2412,5.2412,5.2429,5.2427,5.2528,5.2443,5.2443,5.2443,5.2442,0,5.2034,5.2082,5.2101,5.2135,5.2188,5.2195,5.2246,5.2261,5.2284,5.2319,5.2313,5.2344,5.2349,5.2381,5.2385,5.2432,5.2441,5.2444,5.2444,5.2444,5.2444,5.2455,5.2449,5.2445,5.2445,5.2444,5.2444,0,5.2102,5.2118,5.2177,5.221,5.2219,5.2256,5.2282,5.2313,5.2324,5.2367,5.2378,5.2393,5.2431,5.2439,5.2482,5.2484,5.254,5.2536,5.2532,5.2531,5.2564,5.256,5.2674,5.2689,5.2595,5.2596,5.2597,0,5.2152,5.2189,5.2226,5.2251,5.2269,5.2308,5.2332,5.234,5.2365,5.2399,5.2425,5.2463,5.2493,5.2553,5.2566,5.2599,5.2595,5.2633,5.2599,5.2598,5.2593,5.2591,5.2593,5.2638,5.2639,5.264,5.2641,0,5.2238,5.2244,5.2281,5.232,5.235,5.238,5.2409,5.2428,5.244,5.2467,5.2507,5.2531,5.2577,5.2613,5.2646,5.2659,5.2651,5.2651,5.2661,5.266,5.2655,5.2657,5.2547,5.2648,5.2647,5.2647,5.2646,5.2646,5.2297,5.2329,5.2361,5.2402,5.2425,5.2452,5.2483,5.2499,5.2533,5.2573,5.2575,5.2618,5.2643,5.2687,5.2702,5.2734,5.2722,5.2736,5.2739,5.2742,5.2744,5.2652,5.274,5.274,5.274,5.2739,5.2739,0,5.2381,5.2401,5.2439,5.2481,5.2513,5.2506,5.2537,5.2563,5.2602,5.2628,5.2659,5.2703,5.2739,5.2755,5.2789,5.2811,5.2808,5.282,5.2817,5.282,5.2754,5.2742,5.2822,5.2822,5.2822,5.2822,5.2822,5.2822,5.2428,5.2483,5.2492,5.2557,5.2576,5.2621,5.2639,5.2663,5.2684,5.2735,5.2766,5.2777,5.2799,5.2834,5.2865,5.2869,5.2881,5.2894,5.2896,5.2833,5.2825,5.2817,5.2806,5.2897,5.2897,5.2959,5.296,5.296]}]]